Regional Weather Roundup
Issued by NWS

Home | Current Version | Previous Version | Graphics & Text | Print | Product List | Glossary On
Versions: 1 2 3 4 5 6 7 8 9 10 11 12 13 14 15 16 17 18 19 20 21 22 23 24 25 26 27 28 29 30 31 32 33 34 35 36 37 38 39 40 41 42 43 44 45 46 47 48 49 50
000
ASUS43 KDTX 190301
RWRMI
MICHIGAN HOURLY REGIONAL WEATHER ROUNDUP
NATIONAL WEATHER SERVICE DETROIT/PONTIAC MI
1100 PM EDT THU SEP 18 2014

NOTE: "FAIR" INDICATES FEW OR NO CLOUDS BELOW 12,000 FEET WITH NO
SIGNIFICANT WEATHER AND/OR OBSTRUCTION TO VISIBILITY.

MIZ047>049-052>055-059>063-066>070-074>076-081>083-190400-
SOUTHEAST LOWER MICHIGAN

CITY           SKY/WX    TMP DP  RH WIND       PRES   REMARKS
ADRIAN         MOCLDY    54  50  86 E8        30.21R
ALMA           CLEAR     46  44  93 CALM      30.23R
ANN ARBOR      MOCLDY    55  48  77 CALM      30.20R
BAD AXE        CLEAR     41  38  89 CALM      30.24S
CARO           CLEAR     40  40  97 CALM      30.23R
DETROIT CITY   CLEAR     52  43  71 N6        30.23R
DETROIT        PTCLDY    52  46  80 N8        30.22R
FLINT          CLEAR     49  43  80 E9        30.23R
GROSSE ILE     CLEAR     52  48  87 NE8       30.21R
HILLSDALE      CLEAR     52  52  99 E3        30.19S
HOWELL         CLEAR     47  47  97 NE3       30.21R FOG

CITY           SKY/WX    TMP DP  RH WIND       PRES   REMARKS
JACKSON        CLEAR     51  48  89 NE3       30.20R
LAMBERTVILLE   MOCLDY    54  50  87 NE5       30.20R
LANSING        CLEAR     48  45  89 NE3       30.22R
LAPEER         FAIR      43  40  89 CALM      30.23S
MASON          CLEAR     47  46  96 NE3       30.21S FOG
MONROE         MOCLDY    54  48  82 NE6       30.20R
MT. CLEMENS    CLEAR     47  47  99 NW3       30.21R
PONTIAC        CLEAR     48  42  80 E6        30.22R
PORT HOPE        N/A     51  40  65 NE12      30.23S
PORT HURON     CLEAR     39  37  93 CALM      30.23R FOG
TRI CITIES     CLEAR     47  40  76 E9        30.24R
TROY           CLEAR     51  43  75 NE7       30.24R
SAGINAW HB     CLEAR     43  43 100 E3        30.24R
$$
MIZ043>046-050>051-056>058-064>065-071>073-077>080-190400-
SOUTHWEST LOWER MICHIGAN

CITY           SKY/WX    TMP DP  RH WIND       PRES   REMARKS
BATTLE CREEK   CLEAR     55  49  80 E6        30.20R
BENTON HARBOR  CLEAR     51  50  96 CALM      30.16R
BIG RAPIDS     PTCLDY    47  47 100 CALM      30.21R FOG
COLDWATER      CLEAR     56  52  88 E6        30.18R
FREMONT        CLOUDY    52  51  95 SE5       30.19S
HOLLAND        CLEAR     56  52  86 E6        30.19S
GRAND RAPIDS   CLEAR     52  50  93 E8        30.20R
IONIA          FAIR      49  47  93 E7        30.21R
KALAMAZOO      CLEAR     54  50  86 CALM      30.19R
LUDINGTON      PTCLDY    49  48  96 E3        30.18S
MARSHALL       CLEAR     51  49  92 E3        30.19R
MOUNT PLEASANT FOG       44  44  98 CALM      30.22R VSB 3/4
MUSKEGON       CLEAR     54  50  86 E5        30.19S
SOUTH HAVEN    CLEAR     56  54  93 E3        30.17S
$$
MIZ016>042-190400-
NORTHERN LOWER MICHIGAN

CITY           SKY/WX    TMP DP  RH WIND       PRES   REMARKS
ALPENA         CLEAR     38  35  89 CALM      30.25R
BEAVER ISLAND  PTCLDY    46  45  96 SE5       30.18F
CADILLAC       CLOUDY    49  48  97 SE7       30.20R
CHARLEVOIX     CLEAR     49  43  79 SE6       30.22S
FRANKFORT      PTCLDY    46  43  89 CALM      30.18S
GAYLORD        CLEAR     42  38  85 SE9       30.21R
GRAYLING       PTCLDY    46  42  86 SE6       30.23R
HARBOR SPRINGS CLEAR     44  40  83 NE9       30.20F FOG
HOUGHTON LAKE  CLOUDY    42  40  92 E6        30.23R
MANISTEE       PTCLDY    46  45  93 CALM      30.19R
OSCODA         CLEAR     47  38  71 E5        30.24R
PELLSTON       CLEAR     44  40  85 SE10      30.22S
TRAVERSE CITY  CLEAR     48  44  86 SE3       30.17S
$$
MIZ007>008-015-190400-
EASTERN UPPER MICHIGAN

CITY           SKY/WX    TMP DP  RH WIND       PRES   REMARKS
KINROSS        PTCLDY    39  37  93 SE8       30.21F WCI  34
MACKINAC ISLAN PTCLDY    46  40  78 SE10G17   30.21S
NEWBERRY       PTCLDY    37  36  93 SE5       30.20R WCI  34
S. S. MARIE    PTCLDY    42  35  76 SE7       30.21S
$$
MIZ004>006-011>014-085-190400-
CENTRAL UPPER MICHIGAN

CITY           SKY/WX    TMP DP  RH WIND       PRES   REMARKS
MANISTIQUE     PTCLDY    40  39  95 CALM      30.18R
ESCANABA       PTCLDY    45  41  87 CALM      30.17S
MENOMINEE      CLEAR     48  43  81 CALM      30.16R
SAWYER-GWINN   MOCLDY    46  41  82 S10       30.16R
$$
MIZ001>003-009>011-084-190400-
WESTERN UPPER MICHIGAN

CITY           SKY/WX    TMP DP  RH WIND       PRES   REMARKS
IRON MOUNTAIN  CLEAR     46  43  89 SE3       30.15R
HOUGHTON       CLEAR     45  42  89 E8        30.09F
COPPER HARBOR    N/A     48  41  76 S6        30.11S
IRONWOOD       CLEAR     52  48  87 S9G20     30.04F
$$

ABBREVIATIONS USED IN REMARKS
   TC - TEMPERATURE IN CELSIUS
  WCI - WIND CHILL INDEX
   HX - HEAT INDEX
  VSB - VISIBILITY



USA.gov is the U.S. government's official web portal to all federal, state and local government web resources and services.